Location: Cartignies
(50.0929°N, 3.8447°E)
Time: 15:01:42
(UTC+00:00)

SL-8 Rocket - Pass Details

Date: 12 January 2026
Orbit: 955 x 990 km, 82.9° (Epoch: 15 February)

Event Time Altitude Azimuth Distance (km) Brightness Sun altitude
Rises 16:50:14 0° 353° (N) 3,685 6.8 -6.9°
Reaches altitude 10° 16:52:55 10° 1° (N) 2,728 6.1 -7.3°
Maximum altitude 16:58:50 43° 72° (ENE) 1,339 4.3 -8.2°
Drops below altitude 10° 17:04:39 10° 142° (SE) 2,690 6.2 -9.0°
Sets 17:07:16 0° 150° (SSE) 3,629 6.9 -9.4°
